Location: Aero Crafter Incorporated Heliport
(33.1248°N, 96.5222°W)
Time: 10:37:52
(UTC+00:00)

Cosmos 968 Rocket - Pass Details

Date: 18 November 2025
Orbit: 735 x 766 km, 74.0° (Epoch: 07 December)

Event Time Altitude Azimuth Distance (km) Brightness Sun altitude
Exits shadow 12:02:43 - 338° (NNW) 3,111 6.3 -12.2°
Reaches altitude 10° 12:04:48 10° 335° (NNW) 2,308 5.6 -11.7°
Maximum altitude 12:09:56 59° 257° (WSW) 885 3.6 -10.7°
Drops below altitude 10° 12:15:02 10° 178° (S) 2,289 6.2 -9.7°
Sets 12:17:25 0° 175° (S) 3,208 7.0 -9.2°
